HAZ6227 ZSHC-ZGHA

Flight info

Callsign HAZ6227
Flight time 1h 13m
Altitude 34100
Route ABVIL5E ABVIL G204 OREXA DCT AVDIP W226 DALEP DAL1X
Aircraft A321/M-SDE3FGHIRWY/LB1

Departure

Time 2026-04-29 04:35
Airport Hangzhou Xiaoshan International Airport (ZSHC)

Arrival

Time 2026-04-29 05:48
Airport Changsha Huanghua International Airport (ZGHA)
Time Latitude Longitude Altitude Speed Heading
2026-04-29 04:16 30.23899 120.42364 32 ft 0 kts 83°
2026-04-29 04:26 30.23897 120.42345 32 ft 4 kts 83°
2026-04-29 04:26 30.23894 120.42315 32 ft 3 kts 83°
2026-04-29 04:26 30.23888 120.42287 32 ft 4 kts 58°
2026-04-29 04:26 30.23870 120.42269 30 ft 4 kts
2026-04-29 04:27 30.23845 120.42272 31 ft 4 kts 338°
2026-04-29 04:27 30.23831 120.42279 31 ft 0 kts 333°
2026-04-29 04:29 30.23849 120.42268 31 ft 5 kts 333°
2026-04-29 04:29 30.23871 120.42255 29 ft 3 kts 333°
2026-04-29 04:30 30.23902 120.42238 32 ft 8 kts 333°
2026-04-29 04:30 30.23976 120.42194 32 ft 15 kts 333°
2026-04-29 04:30 30.23977 120.42068 30 ft 12 kts 241°
2026-04-29 04:31 30.23930 120.41960 32 ft 18 kts 239°
2026-04-29 04:31 30.23875 120.41837 32 ft 16 kts 244°
2026-04-29 04:31 30.23902 120.41751 32 ft 12 kts 330°
2026-04-29 04:31 30.23965 120.41714 31 ft 9 kts 334°
2026-04-29 04:32 30.23993 120.41661 32 ft 9 kts 259°
2026-04-29 04:32 30.23949 120.41553 31 ft 19 kts 243°
2026-04-29 04:32 30.23893 120.41428 32 ft 16 kts 243°
2026-04-29 04:32 30.23846 120.41321 32 ft 15 kts 243°
2026-04-29 04:33 30.23790 120.41194 32 ft 21 kts 243°
2026-04-29 04:33 30.23814 120.41081 33 ft 14 kts 335°
2026-04-29 04:33 30.23892 120.41050 33 ft 10 kts 357°
2026-04-29 04:33 30.23937 120.41093 33 ft 8 kts 60°
2026-04-29 04:34 30.23941 120.41101 31 ft 8 kts 62°
2026-04-29 04:34 30.24081 120.41418 31 ft 78 kts 62°
2026-04-29 04:34 30.24423 120.42190 32 ft 136 kts 63°
2026-04-29 04:34 30.24924 120.43308 215 ft 164 kts 62°
2026-04-29 04:35 30.25391 120.44385 1180 ft 145 kts 60°
2026-04-29 04:35 30.25850 120.45425 1859 ft 149 kts 61°
2026-04-29 04:35 30.26352 120.46553 2174 ft 167 kts 61°
2026-04-29 04:35 30.26918 120.47822 2326 ft 189 kts 62°
2026-04-29 04:36 30.27557 120.49257 2464 ft 213 kts 62°
2026-04-29 04:36 30.28269 120.50859 2794 ft 232 kts 63°
2026-04-29 04:36 30.29014 120.52543 3463 ft 237 kts 63°
2026-04-29 04:36 30.29772 120.54258 4175 ft 242 kts 63°
2026-04-29 04:37 30.30546 120.56008 4854 ft 247 kts 63°
2026-04-29 04:37 30.31334 120.57792 5499 ft 252 kts 63°
2026-04-29 04:37 30.32059 120.59664 6100 ft 258 kts 76°
2026-04-29 04:37 30.32118 120.61760 6603 ft 269 kts 102°
2026-04-29 04:38 30.31296 120.63714 7117 ft 275 kts 133°
2026-04-29 04:38 30.29789 120.65044 7714 ft 274 kts 159°
2026-04-29 04:38 30.28032 120.65552 8315 ft 272 kts 181°
2026-04-29 04:38 30.26202 120.65202 9017 ft 268 kts 204°
2026-04-29 04:39 30.24658 120.64042 9789 ft 265 kts 225°
2026-04-29 04:39 30.23619 120.62297 10442 ft 269 kts 240°
2026-04-29 04:39 30.22717 120.60300 10580 ft 290 kts 240°
2026-04-29 04:39 30.21762 120.58160 10694 ft 310 kts 240°
2026-04-29 04:40 30.20741 120.55866 10805 ft 329 kts 240°
2026-04-29 04:40 30.19667 120.53452 10935 ft 346 kts 240°
2026-04-29 04:40 30.18536 120.50917 11056 ft 362 kts 240°
2026-04-29 04:40 30.17364 120.48298 11425 ft 370 kts 241°
2026-04-29 04:41 30.16176 120.45647 11942 ft 374 kts 241°
2026-04-29 04:41 30.14973 120.42963 12475 ft 377 kts 241°
2026-04-29 04:41 30.13764 120.40272 13044 ft 379 kts 241°
2026-04-29 04:41 30.12540 120.37555 13536 ft 384 kts 242°
2026-04-29 04:42 30.11299 120.34806 14063 ft 387 kts 242°
2026-04-29 04:42 30.10050 120.32032 14540 ft 390 kts 242°
2026-04-29 04:42 30.08798 120.29249 15027 ft 392 kts 242°
2026-04-29 04:42 30.07535 120.26446 15489 ft 394 kts 242°
2026-04-29 04:43 30.06271 120.23640 15924 ft 396 kts 242°
2026-04-29 04:43 30.04994 120.20809 16278 ft 400 kts 242°
2026-04-29 04:43 30.03705 120.17960 16727 ft 401 kts 242°
2026-04-29 04:43 30.02413 120.15107 17148 ft 402 kts 242°
2026-04-29 04:44 30.01115 120.12247 17513 ft 404 kts 242°
2026-04-29 04:44 29.99808 120.09359 17883 ft 407 kts 242°
2026-04-29 04:44 29.98494 120.06459 18247 ft 410 kts 242°
2026-04-29 04:44 29.97170 120.03547 18631 ft 410 kts 243°
2026-04-29 04:45 29.95838 120.00618 18903 ft 414 kts 242°
2026-04-29 04:45 29.94503 119.97681 19266 ft 413 kts 242°
2026-04-29 04:45 29.93171 119.94747 19598 ft 414 kts 242°
2026-04-29 04:45 29.91834 119.91805 19912 ft 415 kts 242°
2026-04-29 04:46 29.90485 119.88843 20183 ft 418 kts 242°
2026-04-29 04:46 29.89131 119.85877 20529 ft 419 kts 242°
2026-04-29 04:46 29.87769 119.82897 20829 ft 420 kts 242°
2026-04-29 04:46 29.86400 119.79906 21066 ft 424 kts 242°
2026-04-29 04:47 29.85024 119.76896 21311 ft 426 kts 242°
2026-04-29 04:47 29.83642 119.73868 21585 ft 428 kts 242°
2026-04-29 04:47 29.82255 119.70831 21854 ft 429 kts 242°
2026-04-29 04:47 29.80864 119.67788 22287 ft 429 kts 242°
2026-04-29 04:48 29.79474 119.64753 22716 ft 429 kts 242°
2026-04-29 04:48 29.78077 119.61707 23015 ft 431 kts 242°
2026-04-29 04:48 29.76679 119.58659 23308 ft 432 kts 242°
2026-04-29 04:48 29.75273 119.55596 23578 ft 433 kts 242°
2026-04-29 04:49 29.73859 119.52519 23797 ft 437 kts 242°
2026-04-29 04:49 29.72436 119.49422 23927 ft 440 kts 242°
2026-04-29 04:49 29.71004 119.46310 24172 ft 440 kts 242°
2026-04-29 04:49 29.69573 119.43205 24489 ft 439 kts 242°
2026-04-29 04:50 29.68144 119.40111 24822 ft 437 kts 242°
2026-04-29 04:50 29.66720 119.37030 25114 ft 436 kts 242°
2026-04-29 04:50 29.65497 119.33845 25375 ft 436 kts 250°
2026-04-29 04:50 29.64789 119.30499 25682 ft 437 kts 259°
2026-04-29 04:51 29.64607 119.27005 25931 ft 441 kts 269°
2026-04-29 04:51 29.64887 119.23484 26205 ft 443 kts 272°
2026-04-29 04:51 29.65202 119.19970 26526 ft 441 kts 270°
2026-04-29 04:51 29.65172 119.16479 26851 ft 435 kts 261°
2026-04-29 04:52 29.64623 119.13085 27203 ft 430 kts 252°
2026-04-29 04:52 29.63656 119.09849 27568 ft 427 kts 248°
2026-04-29 04:52 29.62634 119.06648 27987 ft 426 kts 248°
2026-04-29 04:52 29.61624 119.03460 28344 ft 424 kts 248°
2026-04-29 04:53 29.60618 119.00274 28670 ft 423 kts 248°
2026-04-29 04:53 29.59618 118.97102 28980 ft 422 kts 248°
2026-04-29 04:53 29.58623 118.93942 29360 ft 420 kts 248°
2026-04-29 04:53 29.57630 118.90799 29769 ft 417 kts 248°
2026-04-29 04:54 29.56643 118.87684 30105 ft 415 kts 248°
2026-04-29 04:54 29.55654 118.84575 30400 ft 413 kts 248°
2026-04-29 04:54 29.54667 118.81479 30635 ft 413 kts 247°
2026-04-29 04:55 29.52673 118.75245 30836 ft 418 kts 248°
2026-04-29 04:55 29.51780 118.72454 30942 ft 420 kts 248°
2026-04-29 04:55 29.50772 118.69294 31052 ft 423 kts 248°
2026-04-29 04:55 29.49763 118.66123 31183 ft 424 kts 247°
2026-04-29 04:56 29.48750 118.62945 31301 ft 425 kts 247°
2026-04-29 04:56 29.47732 118.59764 31419 ft 425 kts 247°
2026-04-29 04:56 29.46705 118.56567 31541 ft 426 kts 247°
2026-04-29 04:57 29.45197 118.51908 31699 ft 425 kts 246°
2026-04-29 04:57 29.44164 118.48737 31819 ft 425 kts 247°
2026-04-29 04:57 29.43143 118.45563 31937 ft 425 kts 247°
2026-04-29 04:57 29.42124 118.42369 32053 ft 425 kts 247°
2026-04-29 04:58 29.41452 118.40264 32130 ft 425 kts 247°
2026-04-29 04:58 29.40433 118.37086 32260 ft 425 kts 247°
2026-04-29 04:58 29.39067 118.32843 32465 ft 423 kts 246°
2026-04-29 04:59 29.37059 118.26589 33401 ft 408 kts 246°
2026-04-29 04:59 29.36412 118.24578 33715 ft 405 kts 246°
2026-04-29 04:59 29.35433 118.21560 33965 ft 404 kts 246°
2026-04-29 04:59 29.34453 118.18550 34174 ft 404 kts 246°
2026-04-29 05:00 29.33468 118.15534 34231 ft 407 kts 246°
2026-04-29 05:00 29.31469 118.09397 34221 ft 414 kts 246°
2026-04-29 05:01 29.29453 118.03191 34221 ft 416 kts 248°
2026-04-29 05:01 29.27434 117.96987 34223 ft 416 kts 248°
2026-04-29 05:02 29.25405 117.90785 34220 ft 415 kts 248°
2026-04-29 05:02 29.23375 117.84596 34196 ft 416 kts 248°
2026-04-29 05:03 29.21338 117.78378 34200 ft 417 kts 248°
2026-04-29 05:03 29.19298 117.72171 34210 ft 418 kts 248°
2026-04-29 05:04 29.17253 117.65943 34220 ft 418 kts 248°
2026-04-29 05:04 29.15200 117.59710 34228 ft 419 kts 248°
2026-04-29 05:05 29.13139 117.53471 34232 ft 419 kts 248°
2026-04-29 05:05 29.11078 117.47248 34238 ft 419 kts 248°
2026-04-29 05:06 29.09012 117.41015 34240 ft 419 kts 248°
2026-04-29 05:06 29.06945 117.34788 34220 ft 419 kts 248°
2026-04-29 05:07 29.04869 117.28557 34223 ft 420 kts 248°
2026-04-29 05:07 29.02788 117.22305 34232 ft 420 kts 248°
2026-04-29 05:08 29.00703 117.16063 34238 ft 421 kts 248°
2026-04-29 05:08 28.98617 117.09828 34237 ft 421 kts 248°
2026-04-29 05:09 28.96528 117.03588 34239 ft 421 kts 248°
2026-04-29 05:09 28.94446 116.97386 34237 ft 421 kts 248°
2026-04-29 05:10 28.92343 116.91115 34218 ft 421 kts 248°
2026-04-29 05:10 28.90254 116.84912 34235 ft 421 kts 248°
2026-04-29 05:11 28.88134 116.78640 34231 ft 421 kts 248°
2026-04-29 05:11 28.86043 116.72438 34237 ft 421 kts 248°
2026-04-29 05:12 28.83938 116.66200 34238 ft 421 kts 248°
2026-04-29 05:12 28.81826 116.59979 34236 ft 421 kts 248°
2026-04-29 05:13 28.79713 116.53762 34248 ft 421 kts 247°
2026-04-29 05:13 28.77592 116.47537 34250 ft 421 kts 247°
2026-04-29 05:14 28.75468 116.41314 34226 ft 421 kts 247°
2026-04-29 05:14 28.73346 116.35091 34244 ft 422 kts 247°
2026-04-29 05:15 28.71217 116.28865 34255 ft 422 kts 247°
2026-04-29 05:15 28.69081 116.22636 34257 ft 422 kts 247°
2026-04-29 05:16 28.66946 116.16424 34254 ft 421 kts 247°
2026-04-29 05:16 28.64814 116.10229 34257 ft 421 kts 247°
2026-04-29 05:17 28.62678 116.04029 34251 ft 421 kts 247°
2026-04-29 05:17 28.60535 115.97811 34261 ft 421 kts 247°
2026-04-29 05:18 28.58398 115.91614 34267 ft 420 kts 246°
2026-04-29 05:18 28.56260 115.85439 34242 ft 419 kts 246°
2026-04-29 05:19 28.54129 115.79299 34233 ft 418 kts 246°
2026-04-29 05:19 28.51991 115.73154 34249 ft 417 kts 246°
2026-04-29 05:20 28.49864 115.67038 33883 ft 413 kts 246°
2026-04-29 05:20 28.48860 115.63979 33580 ft 414 kts 251°
2026-04-29 05:20 28.48264 115.60776 33292 ft 415 kts 257°
2026-04-29 05:21 28.47375 115.54306 33454 ft 411 kts 257°
2026-04-29 05:21 28.46931 115.51101 32740 ft 412 kts 257°
2026-04-29 05:21 28.46479 115.47871 31906 ft 415 kts 257°
2026-04-29 05:21 28.46028 115.44664 31102 ft 418 kts 257°
2026-04-29 05:22 28.45568 115.41392 30263 ft 422 kts 257°
2026-04-29 05:22 28.45103 115.38078 29240 ft 427 kts 257°
2026-04-29 05:22 28.44633 115.34734 28472 ft 430 kts 257°
2026-04-29 05:22 28.44160 115.31368 27860 ft 432 kts 258°
2026-04-29 05:23 28.43687 115.27988 27239 ft 434 kts 258°
2026-04-29 05:23 28.43213 115.24594 26632 ft 436 kts 258°
2026-04-29 05:23 28.42736 115.21189 26037 ft 438 kts 258°
2026-04-29 05:23 28.42251 115.17769 25454 ft 440 kts 258°
2026-04-29 05:24 28.41758 115.14323 24886 ft 443 kts 258°
2026-04-29 05:24 28.41265 115.10869 24329 ft 444 kts 258°
2026-04-29 05:24 28.40772 115.07399 23777 ft 446 kts 258°
2026-04-29 05:24 28.40278 115.03922 23133 ft 444 kts 259°
2026-04-29 05:25 28.39787 115.00470 22493 ft 442 kts 259°
2026-04-29 05:25 28.39294 114.97029 21868 ft 440 kts 259°
2026-04-29 05:25 28.38801 114.93609 21247 ft 437 kts 259°
2026-04-29 05:25 28.38309 114.90212 20647 ft 435 kts 259°
2026-04-29 05:26 28.37822 114.86836 20088 ft 433 kts 259°
2026-04-29 05:26 28.37314 114.83472 19868 ft 432 kts 259°
2026-04-29 05:26 28.36819 114.80111 19840 ft 432 kts 259°
2026-04-29 05:26 28.36338 114.76737 19850 ft 433 kts 259°
2026-04-29 05:27 28.35862 114.73368 19857 ft 433 kts 259°
2026-04-29 05:27 28.34869 114.66645 19852 ft 432 kts 259°
2026-04-29 05:27 28.34381 114.63270 19862 ft 432 kts 259°
2026-04-29 05:28 28.33897 114.59897 19856 ft 433 kts 259°
2026-04-29 05:28 28.33413 114.56518 19862 ft 434 kts 259°
2026-04-29 05:28 28.32926 114.53136 19864 ft 434 kts 259°
2026-04-29 05:28 28.32436 114.49759 19862 ft 434 kts 259°
2026-04-29 05:29 28.31941 114.46380 19868 ft 434 kts 259°
2026-04-29 05:29 28.31449 114.43044 19867 ft 434 kts 259°
2026-04-29 05:29 28.30944 114.39659 19866 ft 435 kts 259°
2026-04-29 05:29 28.30633 114.36249 19869 ft 436 kts 268°
2026-04-29 05:30 28.30727 114.32810 19868 ft 436 kts 270°
2026-04-29 05:30 28.30840 114.29379 19859 ft 436 kts 270°
2026-04-29 05:30 28.30950 114.25939 19872 ft 436 kts 270°
2026-04-29 05:30 28.31057 114.22544 19686 ft 425 kts 270°
2026-04-29 05:31 28.31160 114.19219 19141 ft 417 kts 270°
2026-04-29 05:31 28.31260 114.15947 18507 ft 413 kts 270°
2026-04-29 05:31 28.31357 114.12700 17789 ft 410 kts 270°
2026-04-29 05:31 28.31452 114.09487 17081 ft 406 kts 270°
2026-04-29 05:32 28.31384 114.06314 16419 ft 401 kts 263°
2026-04-29 05:32 28.30899 114.03225 15828 ft 396 kts 256°
2026-04-29 05:32 28.30239 114.00193 15225 ft 392 kts 257°
2026-04-29 05:32 28.29599 113.97199 14631 ft 389 kts 257°
2026-04-29 05:33 28.28969 113.94235 14070 ft 387 kts 257°
2026-04-29 05:33 28.28344 113.91283 13463 ft 384 kts 257°
2026-04-29 05:33 28.27716 113.88322 12865 ft 385 kts 257°
2026-04-29 05:33 28.27086 113.85378 12317 ft 381 kts 257°
2026-04-29 05:34 28.26460 113.82457 11545 ft 381 kts 257°
2026-04-29 05:34 28.25815 113.79558 10985 ft 378 kts 254°
2026-04-29 05:34 28.24735 113.76856 10484 ft 376 kts 240°
2026-04-29 05:34 28.23104 113.74539 9771 ft 378 kts 224°
2026-04-29 05:35 28.21016 113.72829 9619 ft 365 kts 211°
2026-04-29 05:35 28.18717 113.71749 9490 ft 351 kts 196°
2026-04-29 05:35 28.16359 113.71300 9351 ft 339 kts 185°
2026-04-29 05:35 28.14044 113.71130 9222 ft 327 kts 184°
2026-04-29 05:36 28.11816 113.70969 9087 ft 315 kts 185°
2026-04-29 05:36 28.09667 113.70791 8956 ft 305 kts 185°
2026-04-29 05:36 28.07583 113.70555 8769 ft 297 kts 192°
2026-04-29 05:36 28.05626 113.69852 8412 ft 295 kts 207°
2026-04-29 05:37 28.03901 113.68626 8046 ft 292 kts 221°
2026-04-29 05:37 28.02500 113.66985 7736 ft 289 kts 235°
2026-04-29 05:37 28.01488 113.65031 7400 ft 287 kts 249°
2026-04-29 05:37 28.00913 113.62885 7049 ft 285 kts 263°
2026-04-29 05:38 28.00752 113.60664 6679 ft 284 kts 270°
2026-04-29 05:38 28.00657 113.58425 6309 ft 285 kts 270°
2026-04-29 05:38 28.00556 113.56185 5950 ft 285 kts 270°
2026-04-29 05:38 28.00451 113.53950 5634 ft 284 kts 270°
2026-04-29 05:39 28.00268 113.51720 5305 ft 285 kts 260°
2026-04-29 05:39 27.99669 113.49592 5057 ft 283 kts 249°
2026-04-29 05:39 27.98922 113.47531 4782 ft 281 kts 249°
2026-04-29 05:39 27.98187 113.45485 4466 ft 280 kts 250°
2026-04-29 05:40 27.97464 113.43466 4320 ft 273 kts 250°
2026-04-29 05:40 27.96764 113.41513 4173 ft 264 kts 250°
2026-04-29 05:40 27.96086 113.39613 4021 ft 257 kts 250°
2026-04-29 05:40 27.95419 113.37744 3855 ft 256 kts 250°
2026-04-29 05:41 27.94927 113.35831 3540 ft 251 kts 266°
2026-04-29 05:41 27.94815 113.33874 3242 ft 247 kts 271°
2026-04-29 05:41 27.94729 113.31943 2969 ft 245 kts 271°
2026-04-29 05:41 27.94637 113.30028 2678 ft 243 kts 271°
2026-04-29 05:42 27.94690 113.28144 2389 ft 236 kts 287°
2026-04-29 05:42 27.95229 113.26468 2292 ft 224 kts 304°
2026-04-29 05:42 27.96127 113.25148 2299 ft 206 kts 321°
2026-04-29 05:42 27.97266 113.24210 2296 ft 201 kts 336°
2026-04-29 05:43 27.98549 113.23680 2304 ft 185 kts 351°
2026-04-29 05:43 27.99719 113.23541 2324 ft 159 kts 359°
2026-04-29 05:43 28.00796 113.23474 2313 ft 152 kts 359°
2026-04-29 05:43 28.01831 113.23409 2321 ft 145 kts 359°
2026-04-29 05:44 28.02825 113.23348 2312 ft 141 kts 360°
2026-04-29 05:44 28.03796 113.23289 2309 ft 139 kts 360°
2026-04-29 05:44 28.04761 113.23230 2308 ft 139 kts 360°
2026-04-29 05:44 28.05727 113.23171 2297 ft 139 kts
2026-04-29 05:45 28.06366 113.23132 2291 ft 139 kts
2026-04-29 05:45 28.07658 113.23053 2135 ft 138 kts
2026-04-29 05:45 28.08293 113.23014 2037 ft 138 kts 360°
2026-04-29 05:45 28.09247 113.22956 1860 ft 138 kts 360°
2026-04-29 05:46 28.10199 113.22898 1678 ft 138 kts 359°
2026-04-29 05:46 28.11158 113.22839 1495 ft 137 kts 359°
2026-04-29 05:46 28.12109 113.22781 1318 ft 137 kts 359°
2026-04-29 05:46 28.13060 113.22722 1128 ft 137 kts 359°
2026-04-29 05:47 28.14008 113.22664 935 ft 138 kts 356°
2026-04-29 05:47 28.14966 113.22606 735 ft 138 kts 358°
2026-04-29 05:47 28.15923 113.22547 596 ft 140 kts 358°
2026-04-29 05:47 28.16909 113.22482 387 ft 141 kts 357°
2026-04-29 05:48 28.18154 113.22413 219 ft 123 kts 358°
2026-04-29 05:48 28.18667 113.22384 219 ft 92 kts 356°
2026-04-29 05:48 28.19136 113.22353 222 ft 43 kts 357°
2026-04-29 05:48 28.19362 113.22339 218 ft 30 kts 356°
2026-04-29 05:49 28.19548 113.22276 218 ft 27 kts 328°
2026-04-29 05:49 28.19685 113.22186 215 ft 19 kts 330°
2026-04-29 05:49 28.19803 113.22119 218 ft 18 kts 346°
2026-04-29 05:49 28.19927 113.22108 217 ft 18 kts 358°
2026-04-29 05:50 28.20046 113.22103 218 ft 17 kts 357°
2026-04-29 05:50 28.20169 113.22096 218 ft 18 kts 357°
2026-04-29 05:50 28.20306 113.22087 216 ft 21 kts 356°
2026-04-29 05:50 28.20460 113.22077 214 ft 24 kts 356°
2026-04-29 05:51 28.20596 113.22057 215 ft 16 kts 322°
2026-04-29 05:51 28.20608 113.21990 215 ft 1 kts 267°
2026-04-29 05:51 28.20607 113.21970 216 ft 4 kts 267°
2026-04-29 05:51 28.20604 113.21910 223 ft 15 kts 267°
2026-04-29 05:52 28.20605 113.21779 215 ft 16 kts 267°
2026-04-29 05:52 28.20604 113.21761 218 ft 0 kts 266°
2026-04-29 05:53 28.20603 113.21740 218 ft 9 kts 266°
2026-04-29 05:53 28.20558 113.21688 216 ft 11 kts 184°
2026-04-29 05:53 28.20474 113.21692 216 ft 14 kts 177°
2026-04-29 05:54 28.20367 113.21699 217 ft 17 kts 176°
2026-04-29 05:54 28.20237 113.21707 217 ft 22 kts 177°
2026-04-29 05:54 28.20055 113.21718 218 ft 27 kts 176°
2026-04-29 05:54 28.19864 113.21730 214 ft 27 kts 177°
2026-04-29 05:55 28.19686 113.21740 214 ft 23 kts 177°
2026-04-29 05:55 28.19523 113.21751 215 ft 24 kts 176°
2026-04-29 05:55 28.19356 113.21761 214 ft 24 kts 176°
2026-04-29 05:55 28.19207 113.21771 220 ft 15 kts 178°
2026-04-29 05:56 28.19161 113.21730 218 ft 10 kts 262°
2026-04-29 05:56 28.19156 113.21647 214 ft 11 kts 266°
2026-04-29 05:56 28.19151 113.21552 214 ft 13 kts 267°
2026-04-29 05:56 28.19170 113.21493 217 ft 6 kts 341°
2026-04-29 05:57 28.19202 113.21488 218 ft 1 kts 355°
2026-04-29 05:57 28.19205 113.21488 218 ft 0 kts 356°